This demonstration page uses our WeatherBlox Daily Observations layout. Learn more.

38.88101, -77.10428

Hourly Observations for April 27, 2020

Temp ( °F °C ) Dew Point ( °F °C ) Humidity (%) Winds ( mph kmh ) Pressure ( in mb ) Visibility ( mi km ) Precip ( " mm )
12:21 am 00:21 Cloudy with Drizzle 50 10 48 8.9 93 93 NNE 12 19 29.81 1010 7 11.26538 0.001 0.001
12:31 am 00:31 Cloudy 50 10 48 8.9 93 93 NNE 13 20 29.81 1010 8 12.87472 0.001 0.001
12:52 am 00:52 Cloudy 50 10 47 8.3 89 89 NNE 12 19 29.82 1010 10 16.0934 0.001 0.001
1:08 am 01:08 Cloudy with Drizzle 50 10 48 8.9 93 93 NNE 14 22 29.82 1010 7 11.26538 0.001 0.001
1:21 am 01:21 Cloudy with Drizzle 50 10 46 7.8 86 86 NNE 12 19 29.82 1010 7 11.26538 0.001 0.001
1:52 am 01:52 Cloudy with Drizzle 49 9.4 47 8.3 93 93 N 10 17 29.82 1010 7 11.26538 0.001 0.001
1:57 am 01:57 Cloudy with Light Rain 49 9.4 47 8.3 93 93 N 12 19 29.82 1010 4 6.43736 0.01 0.254
2:28 am 02:28 Cloudy with Light Rain 48 8.9 46 7.8 93 93 N 14 22 29.83 1010 4 6.43736 0.01 0.254
2:52 am 02:52 Cloudy with Light Rain 48 8.9 45 7.2 89 89 N 10 17 29.83 1010 5 8.0467 0.02 0.508
3:36 am 03:36 Cloudy with Light Rain 47 8.3 44 6.7 90 90 N 13 20 29.85 1011 9 14.48406 0.03 0.762
3:42 am 03:42 Cloudy with Light Rain 47 8.3 44 6.7 90 90 N 12 19 29.85 1011 7 11.26538 0.04 1.016
3:52 am 03:52 Cloudy with Light Rain 47 8.3 44 6.7 90 90 N 12 19 29.85 1011 7 11.26538 0.04 1.016
4:31 am 04:31 Cloudy with Light Rain 46 7.8 43 6.1 89 89 NNW 15 24 29.87 1012 6 9.65604 0.03 0.762
4:50 am 04:50 Cloudy with Light Rain 46 8 43 6 87 87 NNW 14 22 29.88 1012 10 16.0934 0.03 0.762
4:52 am 04:52 Cloudy with Light Rain 46 7.8 43 6.1 89 89 NNW 15 24 29.88 1012 10 16.0934 0.03 0.762
5:18 am 05:18 Cloudy with Light Rain 46 7.8 43 6.1 89 89 NNW 14 22 29.89 1012 10 16.0934 0.001 0.001
5:52 am 05:52 Cloudy 45 7.2 41 5 86 86 NNW 14 22 29.9 1013 10 16.0934 0.001 0.001
6:52 am 06:52 Cloudy 45 7.2 41 5 86 86 NNW 13 20 29.93 1014 10 16.0934 0.001 0.001
7:52 am 07:52 Cloudy 45 7.2 41 5 86 86 NW 13 20 29.95 1014 10 16.0934 0 0
8:52 am 08:52 Cloudy with Light Rain 46 7.8 40 4.4 79 79 NNW 15 24 29.98 1015 10 16.0934 0.001 0.001
9:36 am 09:36 Cloudy 47 8.3 39 3.9 74 74 NNW 18 30 29.99 1016 10 16.0934 0.001 0.001
9:52 am 09:52 Cloudy 48 8.9 39 3.9 71 71 NNW 21 33 29.99 1016 10 16.0934 0.001 0.001
10:19 am 10:19 Cloudy 49 9.4 38 3.3 66 66 NNW 21 33 30 1016 10 16.0934 0 0
10:52 am 10:52 Mostly Cloudy 52 11.1 39 3.9 61 61 NNW 17 28 30 1016 10 16.0934 0 0
11:52 am 11:52 Mostly Cloudy 53 11.7 38 3.3 57 57 NW 17 28 30.01 1016 10 16.0934 0 0
12:52 pm 12:52 Mostly Cloudy 54 12.2 39 3.9 57 57 NW 18 30 30.02 1017 10 16.0934 0 0
1:52 pm 13:52 Mostly Cloudy 56 13.3 40 4.4 55 55 NW 17 28 30.03 1017 10 16.0934 0 0
2:52 pm 14:52 Cloudy 56 13.3 40 4.4 55 55 NNW 16 26 30.05 1018 10 16.0934 0 0
3:52 pm 15:52 Cloudy 56 13.3 40 4.4 55 55 NW 12 19 30.06 1018 10 16.0934 0 0
4:52 pm 16:52 Mostly Cloudy 59 15 40 4.4 49 49 NW 15 24 30.06 1018 10 16.0934 0 0
5:52 pm 17:52 Mostly Cloudy 58 14.4 36 2.2 44 44 NW 20 31 30.07 1018 10 16.0934 0 0
6:52 pm 18:52 Partly Cloudy 59 15 36 2.2 42 42 NNW 13 20 30.08 1019 10 16.0934 0 0
7:52 pm 19:52 Mostly Sunny 55 12.8 36 2.2 49 49 NNW 10 17 30.08 1019 10 16.0934 0 0
8:52 pm 20:52 Mostly Clear 55 12.8 35 1.7 47 47 NNW 5 7 30.11 1020 10 16.0934 0 0
9:52 pm 21:52 Mostly Clear 53 11.7 37 2.8 55 55 N 3 6 30.13 1020 10 16.0934 0 0
10:52 pm 22:52 Mostly Clear 50 10 41 5 71 71 ENE 3 6 30.15 1021 10 16.0934 0 0
11:52 pm 23:52 Partly Cloudy 51 10.6 38 3.3 61 61 ENE 5 7 30.16 1021 10 16.0934 0 0

Powered by AerisWeather